Location: Brantley
(31.5822°N, 86.2569°W)
Time: 12:24:48
(UTC+00:00)

Courier 1B Rocket - Pass Details

Date: 19 February 2026
Orbit: 920 x 1201 km, 28.2° (Epoch: 17 March)

Event Time Altitude Azimuth Distance (km) Brightness Sun altitude
Rises 06:36:56 0° 267° (W) 3,728 - -67.8°
Reaches altitude 10° 06:40:21 10° 250° (WSW) 2,828 - -67.5°
Maximum altitude 06:45:03 19° 207° (SSW) 2,277 - -67.0°
Drops below altitude 10° 06:49:58 10° 164° (SSE) 2,967 - -66.5°
Sets 06:53:42 0° 148° (SSE) 3,975 - -66.0°
